Volver al catálogo

THORAD AGENA D DEB

LostSSO
NORAD 42491·DEBRIS·🇺🇸 United States

Lanzado Apr 8, 1970 desde Vandenberg Space Force Base

Loading…

Próximos Pases (próximas 24 horas)

TLE

ObsoletoSource: Space-Track

Época: Apr 29, 2025, 22:47 UTC

1 42491U 70025QV  25119.94965370  .00000700  00000-0  88642-3 0  9993
2 42491  99.9910  23.0749 0008882 192.2264 228.6875 13.67524692570034

Sigue THORAD AGENA D DEB en tiempo real con AllMySat

Download on the App Store